Metz, WV (26585)

9:56 AM EST on February 09, 2016 (GMT -0500)
Curtisville | | Change Station
CLOSE
Current Station
Personal Weather Station
Location: Mannington, WV
Elevation: 1017 ft
Nearby Weather Stations

Elev 1017 ft 39.52 °N, 80.44 °W | Updated 3 minutes ago

Snow
Snow
26.1 °F
Feels Like 26 °F
N
0.0
Wind Variable Wind from SW

Today
High -- | Low -- °F
--% Chance of Precip.
Yesterday
High -- | Low -- °F
Precip. -- in
Pressure 29.68 in
Visibility 1.0 miles
Clouds
Windchill 26 °F
Dew Point 24 °F
Humidity 90%
Rainfall 0.00 in
Snow Depth Not available.
7:21 AM 5:50 PM
New Moon, 1% visible
METAR KCKB 091453Z 24009KT 1SM -SN BR VV016 M04/M06 A2966 RMK AO2 SLP049 P0001 60001 T10441061 51023 RVRNO
Pressure 29.68 in
Visibility 1.0 miles
Clouds
Windchill 26 °F
Dew Point 24 °F
Humidity 90%
Rainfall 0.00 in
Snow Depth Not available.
7:21 AM 5:50 PM
New Moon, 1% visible
METAR KCKB 091453Z 24009KT 1SM -SN BR VV016 M04/M06 A2966 RMK AO2 SLP049 P0001 60001 T10441061 51023 RVRNO

10-Day Weather Forecast

Almanac

Astronomy

Feb. 09, 2016 Rise Set
Actual Time
Civil Twilight
Nautical Twilight
Astronomical Twilight
Moon
Length of Visible Light
Length of Day
Tomorrow will be .
, % of the Moon is Illuminated

Today's Extremes

State Highs State Lows

Community

WunderPhotos

Upload Photos

1,891,614 photos uploaded!

WunderBlog® & News

Nearby

Air Quality

  Air Quality AQ Index Pollutant
Not available.

Snow Depth

Station Depth Elevation

Earthquake Activity

City Distance Mag. Time & Date
Minimum magnitude displayed is 2.5.

Coastal Water Temperatures

Place Temperature

Stations

Nearby Weather Stations

Station Location Temp. Windchill Dew Point Humidity Wind Precip. Elev Updated Type
                   

Watches & Warnings

Winter Weather Advisory
Issued: 9:42 AM EST Feb. 9, 2016 – National Weather Service

... Winter Weather Advisory remains in effect until 7 am EST
Wednesday...

* snow accumulation... 3 to 5 inches.

* Period of most intense snow... through late afternoon.

* Snow ending... snow showers will diminish this evening.

* Impacts... hazardous travel conditions are expected due to snow.

Precautionary/preparedness actions...

A Winter Weather Advisory for snow means that periods of snow
will cause primarily travel difficulties. Be prepared for snow
covered roads and limited visibilities... and use caution while
driving.